OE3FJB-25 Weather Reports


time (UTC)temp
F
wind
direction
speed
knots
gust
knots
rain 1hr
in
rain 24hr
in
rain mn
in
humidity
%
barometer
mb
20260507145520 60 0.0 0.0 0.00 0.00 0.00 99 1016.4
20260507144521 60 0.0 0.0 0.00 0.00 0.00 99 1016.5
20260507143522 60 0.0 0.0 0.00 0.00 0.00 99 1016.4
20260507142523 60 0.0 0.0 0.00 0.00 0.00 99 1016.4
20260507141525 60 0.0 0.0 0.00 0.00 0.00 99 1016.3
20260507140526 60 0.0 0.0 0.00 0.00 0.00 99 1016.4
20260507135527 60 0.0 0.0 0.00 0.00 0.00 99 1016.3
20260507134529 60 0.0 0.0 0.00 0.00 0.00 99 1016.4
20260507133530 61 0.0 0.0 0.00 0.00 0.00 99 1016.4
20260507132532 59 0.0 0.0 0.00 0.00 0.00 99 1016.5
20260507131533 60 0.0 0.0 0.00 0.00 0.00 99 1016.5
20260507130534 60 0.0 0.0 0.00 0.00 0.00 99 1016.5
20260507125536 62 0.0 0.0 0.00 0.00 0.00 99 1016.4
20260507124537 64 0.0 0.0 0.00 0.00 0.00 99 1016.4
20260507123538 61 0.0 0.0 0.00 0.00 0.00 99 1016.3
20260507122540 61 0.0 0.0 0.00 0.00 0.00 99 1016.3
20260507121541 60 0.0 0.0 0.00 0.00 0.00 99 1016.4
20260507120543 61 0.0 0.0 0.00 0.00 0.00 99 1016.5
20260507115544 62 0.0 0.0 0.00 0.00 0.00 99 1016.4
20260507114545 62 0.0 0.0 0.00 0.00 0.00 97 1016.4
20260507113547 66 0.0 0.0 0.00 0.00 0.00 92 1016.4
20260507112548 66 0.0 0.0 0.00 0.00 0.00 95 1016.4
20260507111546 63 0.0 0.0 0.00 0.00 0.00 99 1016.4
20260507110548 64 0.0 0.0 0.00 0.00 0.00 99 1016.4
20260507105549 63 0.0 0.0 0.00 0.00 0.00 99 1016.5
20260507104550 63 0.0 0.0 0.00 0.00 0.00 99 1016.5
20260507103552 61 0.0 0.0 0.00 0.00 0.00 99 1016.4
20260507102553 61 0.0 0.0 0.00 0.00 0.00 99 1016.3
20260507101554 63 0.0 0.0 0.00 0.00 0.00 99 1016.4
20260507100556 63 0.0 0.0 0.00 0.00 0.00 99 1016.4
20260507095557 63 0.0 0.0 0.00 0.00 0.00 99 1016.4
20260507094559 66 0.0 0.0 0.00 0.00 0.00 99 1016.2
20260507093600 62 0.0 0.0 0.00 0.00 0.00 99 1016.2
20260507092601 60 0.0 0.0 0.00 0.00 0.00 99 1016.2
20260507091603 62 0.0 0.0 0.00 0.00 0.00 99 1016.0
20260507090604 63 0.0 0.0 0.00 0.00 0.00 99 1016.0
20260507085605 63 0.0 0.0 0.00 0.00 0.00 99 1015.9
20260507084607 61 0.0 0.0 0.00 0.00 0.00 99 1015.8
20260507083608 58 0.0 0.0 0.00 0.00 0.00 99 1015.7
20260507082610 57 0.0 0.0 0.00 0.00 0.00 99 1015.7
20260507081611 54 0.0 0.0 0.00 0.00 0.00 99 1015.6
20260507080612 53 0.0 0.0 0.00 0.00 0.00 99 1015.5
20260507075614 51 0.0 0.0 0.00 0.00 0.00 99 1015.6
20260507074615 51 0.0 0.0 0.00 0.00 0.00 99 1015.6
20260507073616 50 0.0 0.0 0.00 0.00 0.00 99 1015.4
20260507072617 49 0.0 0.0 0.00 0.00 0.00 99 1015.4
20260507071619 49 0.0 0.0 0.00 0.00 0.00 99 1015.4
20260507070620 48 0.0 0.0 0.00 0.00 0.00 99 1015.4
20260507065621 48 0.0 0.0 0.00 0.00 0.00 99 1015.4
20260507064623 48 0.0 0.0 0.00 0.00 0.00 99 1015.3
20260507063624 47 0.0 0.0 0.00 0.00 0.00 99 1015.4
20260507062625 47 0.0 0.0 0.00 0.00 0.00 99 1015.3
20260507061627 47 0.0 0.0 0.00 0.00 0.00 99 1015.3
20260507060628 47 0.0 0.0 0.00 0.00 0.00 99 1015.3
20260507055629 48 0.0 0.0 0.00 0.00 0.00 99 1015.3
20260507054631 48 0.0 0.0 0.00 0.00 0.00 99 1015.2
20260507053632 48 0.0 0.0 0.00 0.00 0.00 99 1014.9
20260507052633 47 0.0 0.0 0.00 0.00 0.00 99 1014.7
20260507051634 47 0.0 0.0 0.00 0.00 0.00 99 1014.6
20260507050636 46 0.0 0.0 0.00 0.00 0.00 99 1014.5
20260507045637 46 0.0 0.0 0.00 0.00 0.00 99 1014.4
20260507044638 46 0.0 0.0 0.00 0.00 0.00 99 1014.4
20260507043640 46 0.0 0.0 0.00 0.00 0.00 99 1014.3
20260507042641 46 0.0 0.0 0.00 0.00 0.00 99 1014.3
20260507041642 46 0.0 0.0 0.00 0.00 0.00 99 1014.2
20260507040644 46 0.0 0.0 0.00 0.00 0.00 99 1014.1
20260507035645 46 0.0 0.0 0.00 0.00 0.00 99 1013.9
20260507034646 46 0.0 0.0 0.00 0.00 0.00 99 1013.9
20260507033647 46 0.0 0.0 0.00 0.00 0.00 99 1013.7
20260507032649 46 0.0 0.0 0.00 0.00 0.00 99 1013.6
20260507031650 46 0.0 0.0 0.00 0.00 0.00 99 1013.6
20260507030651 46 0.0 0.0 0.00 0.00 0.00 99 1013.6
20260507025653 47 0.0 0.0 0.00 0.00 0.00 99 1013.5
20260507024654 47 0.0 0.0 0.00 0.00 0.00 99 1013.5
20260507023655 47 0.0 0.0 0.00 0.00 0.00 99 1013.4
20260507022656 47 0.0 0.0 0.00 0.00 0.00 99 1013.3
20260507021658 47 0.0 0.0 0.00 0.00 0.00 99 1013.3
20260507020659 48 0.0 0.0 0.00 0.00 0.00 99 1013.3
20260507015700 48 0.0 0.0 0.00 0.00 0.00 99 1013.4
20260507014700 48 0.0 0.0 0.00 0.00 0.00 99 1013.3
20260507013701 48 0.0 0.0 0.00 0.00 0.00 99 1013.2
20260507012702 48 0.0 0.0 0.00 0.00 0.00 99 1013.1
20260507011700 48 0.0 0.0 0.00 0.00 0.00 99 1013.2
20260507010701 49 0.0 0.0 0.00 0.00 0.00 99 1012.9
20260507005702 49 0.0 0.0 0.00 0.00 0.00 99 1012.9
20260507004704 49 0.0 0.0 0.00 0.00 0.00 99 1013.1
20260507003705 49 0.0 0.0 0.00 0.00 0.00 99 1012.9
20260507002706 49 0.0 0.0 0.00 0.00 0.00 99 1012.8
20260507001708 49 0.0 0.0 0.00 0.00 0.00 99 1012.8
20260507000709 49 0.0 0.0 0.00 0.00 0.00 99 1012.6
20260506235710 49 0.0 0.0 0.00 0.00 0.00 99 1012.4
20260506234712 49 0.0 0.0 0.00 0.00 0.00 99 1012.3
20260506233713 49 0.0 0.0 0.00 0.00 0.00 99 1012.4
20260506232714 50 0.0 0.0 0.00 0.00 0.00 99 1012.4
20260506231715 50 0.0 0.0 0.00 0.00 0.00 99 1012.3
20260506230717 50 0.0 0.0 0.00 0.00 0.00 99 1012.0
20260506225718 51 0.0 0.0 0.00 0.00 0.00 99 1012.0
20260506224720 50 0.0 0.0 0.00 0.00 0.00 99 1011.9
20260506223721 51 0.0 0.0 0.00 0.00 0.00 99 1011.9
20260506222722 50 0.0 0.0 0.00 0.00 0.00 99 1011.8
20260506221723 50 0.0 0.0 0.00 0.00 0.00 99 1011.7
20260506220725 50 0.0 0.0 0.00 0.00 0.00 99 1011.6
20260506215726 50 0.0 0.0 0.00 0.00 0.00 99 1011.5
20260506214727 50 0.0 0.0 0.00 0.00 0.00 99 1011.4
20260506213729 50 0.0 0.0 0.00 0.00 0.00 99 1011.3
20260506212730 50 0.0 0.0 0.00 0.00 0.00 99 1011.0
20260506211731 50 0.0 0.0 0.00 0.00 0.00 99 1011.0
20260506210733 50 0.0 0.0 0.00 0.00 0.00 99 1011.0
20260506205734 49 0.0 0.0 0.00 0.00 0.00 99 1010.9
20260506204735 50 0.0 0.0 0.00 0.00 0.00 99 1010.9
20260506203737 50 0.0 0.0 0.00 0.00 0.00 99 1010.8
20260506202738 50 0.0 0.0 0.00 0.00 0.00 99 1010.7
20260506201739 52 0.0 0.0 0.00 0.00 0.00 99 1010.7
20260506200741 53 0.0 0.0 0.00 0.00 0.00 99 1010.6
20260506195742 54 0.0 0.0 0.00 0.00 0.00 99 1010.4
20260506194744 54 0.0 0.0 0.00 0.00 0.00 99 1010.4
20260506193745 55 0.0 0.0 0.00 0.00 0.00 99 1010.2
20260506192746 57 0.0 0.0 0.00 0.00 0.00 99 1010.1
20260506191747 59 0.0 0.0 0.00 0.00 0.00 99 1010.1
20260506190749 61 0.0 0.0 0.00 0.00 0.00 99 1009.6
20260506185750 61 0.0 0.0 0.00 0.00 0.00 99 1009.1
20260506184751 61 0.0 0.0 0.00 0.00 0.00 99 1008.9
20260506183753 61 0.0 0.0 0.00 0.00 0.00 99 1008.7
20260506182754 60 0.0 0.0 0.00 0.00 0.00 99 1008.5
20260506181756 60 0.0 0.0 0.00 0.00 0.00 99 1008.0
20260506180757 61 0.0 0.0 0.00 0.00 0.00 99 1007.9
20260506175758 61 0.0 0.0 0.00 0.00 0.00 99 1007.8
20260506174800 61 0.0 0.0 0.00 0.00 0.00 99 1007.7
20260506173801 62 0.0 0.0 0.00 0.00 0.00 99 1007.8
20260506172802 62 0.0 0.0 0.00 0.00 0.00 97 1007.7
20260506171804 63 0.0 0.0 0.00 0.00 0.00 93 1007.8
20260506170805 64 0.0 0.0 0.00 0.00 0.00 87 1007.8
20260506165807 65 0.0 0.0 0.00 0.00 0.00 82 1007.8
20260506164808 67 0.0 0.0 0.00 0.00 0.00 73 1008.0
20260506163809 68 0.0 0.0 0.00 0.00 0.00 62 1008.0
20260506162811 70 0.0 0.0 0.00 0.00 0.00 54 1008.1
20260506161812 72 0.0 0.0 0.00 0.00 0.00 51 1008.2
20260506160814 72 0.0 0.0 0.00 0.00 0.00 51 1008.4
20260506155815 71 0.0 0.0 0.00 0.00 0.00 54 1008.5
20260506154817 69 0.0 0.0 0.00 0.00 0.00 59 1008.6
20260506153818 69 0.0 0.0 0.00 0.00 0.00 56 1008.6
20260506152819 69 0.0 0.0 0.00 0.00 0.00 55 1008.8
20260506151821 70 0.0 0.0 0.00 0.00 0.00 55 1008.8
20260506145824 71 0.0 0.0 0.00 0.00 0.00 60 1009.0